EW9991 Weather Reports


time (UTC)temp
F
wind
direction
speed
knots
gust
knots
rain 1hr
in
rain 24hr
in
rain mn
in
humidity
%
barometer
mb
20260507212129 66 145 0.9 3.5 0.00 0.14 0.11 29 1004.7
20260507211629 65 258 0.9 4.3 0.00 0.14 0.11 30 1004.8
20260507211129 65 253 0.9 4.3 0.00 0.14 0.11 28 1004.7
20260507210629 66 257 0.9 2.6 0.00 0.14 0.11 28 1004.6
20260507210129 66 229 0.0 2.6 0.00 0.14 0.11 28 1004.7
20260507205900 66 295 0.9 6.1 0.00 0.14 0.11 30 1004.7
20260507205127 66 196 0.9 6.1 0.00 0.14 0.11 29 1004.7
20260507204627 66 233 0.9 4.3 0.00 0.14 0.11 31 1004.6
20260507204127 66 176 0.9 4.3 0.00 0.14 0.11 31 1004.7
20260507203620 66 272 0.9 5.2 0.00 0.14 0.11 30 1004.7
20260507203616 66 274 0.9 5.2 0.00 0.14 0.11 32 1004.7
20260507202609 66 284 0.9 3.5 0.00 0.14 0.11 32 1004.7
20260507202103 66 216 0.9 3.5 0.00 0.14 0.11 29 1004.7
20260507201603 66 262 1.7 3.5 0.00 0.14 0.11 30 1004.7
20260507201101 65 264 1.7 5.2 0.00 0.14 0.11 30 1004.7
20260507200601 66 245 0.9 5.2 0.00 0.14 0.11 28 1004.7
20260507200100 66 301 0.9 5.2 0.00 0.14 0.11 29 1004.7
20260507195601 66 252 0.9 5.2 0.00 0.14 0.11 29 1004.8
20260507195101 66 230 0.9 6.1 0.00 0.14 0.11 30 1004.9
20260507194829 66 5 0.9 6.1 0.00 0.15 0.11 29 1005.0
20260507194101 67 145 0.9 3.5 0.00 0.15 0.11 27 1005.0
20260507194057 66 139 0.9 6.1 0.00 0.15 0.11 28 1005.0
20260507193053 66 258 0.9 2.6 0.00 0.15 0.11 29 1005.0
20260507192539 66 206 0.9 3.5 0.00 0.16 0.11 29 1005.1
20260507192306 65 249 0.9 6.1 0.00 0.16 0.11 27 1005.1
20260507191905 65 214 0.9 4.3 0.00 0.16 0.11 27 1005.2
20260507191758 65 188 0.9 6.1 0.00 0.16 0.11 28 1005.1
20260507190525 65 40 0.9 3.5 0.00 0.16 0.11 29 1005.2
20260507190023 65 316 0.9 3.5 0.00 0.16 0.11 28 1005.2
20260507185521 65 289 1.7 3.5 0.00 0.16 0.11 28 1005.2
20260507185253 65 217 1.7 5.2 0.00 0.16 0.11 27 1005.3
20260507184521 65 235 0.9 5.2 0.00 0.16 0.11 28 1005.3
20260507184018 65 214 1.7 9.6 0.00 0.16 0.11 27 1005.5
20260507183519 65 249 1.7 9.6 0.00 0.16 0.11 27 1005.4
20260507183019 66 201 0.9 7.0 0.00 0.16 0.11 29 1005.4
20260507182518 65 251 1.7 7.0 0.00 0.16 0.11 32 1005.4
20260507182021 65 260 0.9 5.2 0.00 0.16 0.11 30 1005.4
20260507181521 65 189 0.9 5.2 0.00 0.16 0.11 33 1005.5
20260507181016 65 223 0.9 5.2 0.00 0.16 0.11 33 1005.6
20260507180517 65 227 0.0 5.2 0.00 0.16 0.11 33 1005.6
20260507180017 65 169 0.9 3.5 0.00 0.16 0.11 33 1005.7
20260507175515 65 212 1.7 5.2 0.00 0.16 0.11 33 1005.7
20260507175013 65 191 0.9 6.1 0.00 0.16 0.11 35 1005.7
20260507174740 65 12 0.9 6.1 0.00 0.16 0.11 34 1005.6
20260507174006 65 226 0.9 3.5 0.00 0.16 0.11 37 1005.7
20260507173507 65 163 0.9 4.3 0.00 0.16 0.11 36 1005.7
20260507173007 64 262 0.9 4.3 0.00 0.16 0.11 36 1005.7
20260507172507 64 304 0.9 3.5 0.00 0.16 0.11 35 1005.7
20260507172007 64 248 0.9 3.5 0.00 0.16 0.11 37 1005.8
20260507171505 64 61 0.9 4.3 0.00 0.16 0.11 40 1005.7
20260507171003 63 241 0.9 4.3 0.00 0.16 0.11 38 1005.7
20260507170727 64 210 0.9 3.5 0.00 0.16 0.11 41 1005.8
20260507170226 64 164 0.9 4.3 0.00 0.16 0.11 44 1005.9
20260507165446 63 50 0.9 4.3 0.00 0.16 0.11 43 1006.0
20260507164947 63 295 0.9 2.6 0.00 0.16 0.11 45 1006.0
20260507164444 62 255 0.9 2.6 0.00 0.16 0.11 48 1006.0
20260507163944 62 192 0.9 5.2 0.00 0.16 0.11 46 1006.1
20260507163445 61 331 0.9 5.2 0.00 0.16 0.11 46 1006.2
20260507162945 61 208 0.9 3.5 0.00 0.16 0.11 51 1006.2
20260507162445 62 304 0.9 3.5 0.00 0.16 0.11 50 1006.4
20260507162213 61 279 0.9 7.8 0.00 0.16 0.11 52 1006.3
20260507161441 60 243 1.7 7.8 0.00 0.16 0.11 51 1006.3
20260507160934 60 211 0.9 4.3 0.00 0.16 0.11 51 1006.4
20260507160433 61 207 0.9 3.5 0.00 0.16 0.11 52 1006.4
20260507155935 60 112 0.0 3.5 0.00 0.16 0.11 54 1006.5
20260507155431 60 197 0.0 3.5 0.00 0.16 0.11 52 1006.5
20260507154930 60 139 0.0 1.7 0.00 0.16 0.11 58 1006.6
20260507154435 60 1 0.0 2.6 0.00 0.16 0.11 56 1006.7
20260507154431 60 30 0.0 2.6 0.00 0.16 0.11 57 1006.7
20260507153431 60 238 0.0 2.6 0.00 0.16 0.11 56 1006.7
20260507152930 59 325 0.0 2.6 0.00 0.16 0.11 59 1006.7
20260507152430 59 232 0.0 1.7 0.00 0.16 0.11 58 1006.8
20260507151931 59 232 0.0 1.7 0.00 0.16 0.11 55 1006.9
20260507151430 59 168 0.9 3.5 0.00 0.16 0.11 58 1006.9
20260507150931 59 208 0.9 4.3 0.00 0.16 0.11 54 1006.9
20260507150431 60 197 0.9 4.3 0.00 0.16 0.11 54 1006.9
20260507145931 59 126 0.9 3.5 0.00 0.16 0.11 53 1007.0
20260507145431 59 279 0.0 1.7 0.00 0.16 0.11 57 1007.1
20260507144930 59 326 0.0 1.7 0.00 0.16 0.11 54 1007.2
20260507144430 60 196 0.0 6.1 0.00 0.16 0.11 55 1007.2
20260507144201 60 316 0.9 6.1 0.00 0.16 0.11 55 1007.4
20260507143430 59 264 0.9 3.5 0.00 0.16 0.11 56 1007.3
20260507142931 59 237 0.9 3.5 0.00 0.16 0.11 54 1007.2
20260507142426 59 35 0.0 2.6 0.00 0.16 0.11 55 1007.3
20260507141926 59 216 0.0 2.6 0.00 0.16 0.11 55 1007.3
20260507141427 58 49 0.0 1.7 0.00 0.16 0.11 58 1007.4
20260507140926 58 61 0.0 1.7 0.00 0.16 0.11 58 1007.3
20260507140426 58 205 0.0 2.6 0.00 0.16 0.11 59 1007.3
20260507135930 57 219 0.0 1.7 0.00 0.16 0.11 60 1007.3
20260507135926 57 205 0.0 2.6 0.00 0.16 0.11 61 1007.3
20260507134926 57 163 0.0 1.7 0.00 0.16 0.11 65 1007.3
20260507134426 56 62 0.0 2.6 0.00 0.16 0.11 64 1007.3
20260507134158 56 335 0.0 2.6 0.00 0.16 0.11 66 1007.3
20260507133426 56 90 0.0 5.2 0.00 0.16 0.11 66 1007.2
20260507132927 55 107 0.0 5.2 0.00 0.16 0.11 68 1007.3
20260507132426 55 4 0.9 3.5 0.00 0.16 0.11 71 1007.4
20260507131926 55 7 0.0 3.5 0.00 0.16 0.11 70 1007.5
20260507131419 54 216 0.0 1.7 0.00 0.16 0.11 74 1007.5
20260507131145 54 218 0.0 1.7 0.00 0.16 0.11 76 1007.6
20260507130408 53 339 0.0 1.7 0.00 0.16 0.11 78 1007.5
20260507125908 53 193 0.9 4.3 0.00 0.16 0.11 81 1007.5
20260507125406 52 81 0.0 4.3 0.00 0.16 0.11 81 1007.7
20260507124905 52 187 0.0 1.7 0.00 0.16 0.11 85 1007.8
20260507124406 51 312 0.0 2.6 0.00 0.16 0.11 84 1007.9
20260507124402 51 187 0.0 2.6 0.00 0.16 0.11 84 1007.8
20260507123629 51 110 0.0 4.3 0.00 0.16 0.11 86 1007.7
20260507122856 50 48 0.0 4.3 0.00 0.16 0.11 86 1007.6
20260507122356 50 244 0.0 2.6 0.00 0.16 0.11 87 1007.6
20260507122127 49 31 0.0 1.7 0.00 0.16 0.11 87 1007.7
20260507121354 49 21 0.0 1.7 0.00 0.16 0.11 87 1007.7
20260507120839 49 139 0.0 0.0 0.00 0.16 0.11 87 1007.6
20260507120337 48 139 0.0 0.9 0.00 0.16 0.11 87 1007.5
20260507115836 48 139 0.0 0.9 0.00 0.16 0.11 87 1007.5
20260507115608 48 42 0.0 0.0 0.00 0.16 0.11 87 1007.6
20260507114834 48 43 0.0 0.0 0.00 0.16 0.11 87 1007.6
20260507114603 48 43 0.0 0.0 0.00 0.16 0.11 87 1007.6
20260507113830 48 43 0.0 0.9 0.00 0.16 0.11 87 1007.4
20260507113328 48 43 0.0 0.9 0.00 0.16 0.11 87 1007.4
20260507112826 48 289 0.0 0.9 0.00 0.16 0.11 87 1007.4
20260507112555 48 289 0.0 0.9 0.00 0.16 0.11 87 1007.5
20260507111822 48 214 0.0 0.0 0.00 0.16 0.11 87 1007.4
20260507111320 48 214 0.0 0.0 0.00 0.16 0.11 87 1007.4
20260507110814 48 214 0.0 0.0 0.01 0.16 0.11 87 1007.3
20260507110542 48 214 0.0 0.0 0.01 0.16 0.11 87 1007.2
20260507105813 48 214 0.0 0.0 0.01 0.16 0.11 87 1007.3
20260507105312 48 214 0.0 0.0 0.01 0.16 0.11 87 1007.4
20260507104812 48 214 0.0 0.0 0.01 0.16 0.11 87 1007.5
20260507104540 48 214 0.0 0.9 0.02 0.16 0.11 87 1007.6
20260507103808 48 214 0.0 0.9 0.02 0.16 0.11 87 1007.6
20260507103306 48 214 0.0 0.9 0.02 0.16 0.11 87 1007.6
20260507102806 48 214 0.0 0.9 0.02 0.16 0.11 87 1007.2
20260507102307 48 213 0.0 0.0 0.02 0.16 0.11 87 1007.2
20260507102034 48 214 0.0 0.0 0.03 0.16 0.11 87 1006.9
20260507101258 48 214 0.0 0.0 0.04 0.16 0.11 87 1007.0
20260507101014 48 213 0.0 0.0 0.04 0.15 0.10 87 1007.0
20260507100242 48 214 0.0 0.9 0.05 0.15 0.10 87 1007.0
20260507095732 48 214 0.0 0.9 0.05 0.15 0.10 86 1006.8
20260507095226 48 251 0.0 1.7 0.06 0.15 0.10 86 1006.7
20260507094727 48 289 0.0 1.7 0.06 0.15 0.10 86 1006.8
20260507094224 48 29 0.0 0.9 0.05 0.14 0.09 86 1006.7
20260507093721 48 29 0.0 1.7 0.05 0.14 0.09 86 1006.6
20260507093455 49 284 0.0 1.7 0.05 0.14 0.09 86 1006.7
20260507092723 49 355 0.0 3.5 0.05 0.14 0.09 86 1006.8
20260507092452 49 45 0.0 3.5 0.06 0.14 0.09 86 1006.9
20260507091722 49 352 0.0 0.0 0.05 0.13 0.08 86 1006.8
20260507091220 49 352 0.0 0.0 0.04 0.12 0.07 86 1006.9
20260507090949 49 352 0.0 0.0 0.03 0.11 0.06 86 1007.0
20260507090217 49 352 0.0 0.9 0.02 0.10 0.05 86 1007.1
20260507085718 49 352 0.0 0.9 0.03 0.10 0.05 86 1007.2
20260507085218 49 352 0.0 2.6 0.02 0.09 0.04 86 1007.0
20260507084721 50 170 0.0 2.6 0.02 0.09 0.04 86 1007.0
20260507084218 50 22 0.0 0.0 0.03 0.09 0.04 85 1006.9
20260507083947 50 22 0.0 0.9 0.04 0.09 0.04 85 1006.9
20260507083448 50 22 0.0 0.9 0.04 0.09 0.04 85 1006.8
20260507082716 50 22 0.0 2.6 0.04 0.09 0.04 85 1006.7
20260507082216 51 22 0.0 2.6 0.03 0.08 0.04 85 1006.6
20260507081716 51 270 0.0 2.6 0.03 0.08 0.03 85 1006.4
20260507081202 51 167 0.0 1.7 0.03 0.08 0.03 85 1006.4
20260507080648 52 241 0.0 2.6 0.03 0.08 0.03 85 1006.7
20260507080148 52 324 0.0 2.6 0.03 0.08 0.03 85 1006.6
20260507075645 53 272 0.0 2.6 0.02 0.07 0.02 85 1006.6
20260507075144 53 272 0.0 2.6 0.02 0.07 0.02 85 1006.6
20260507074646 53 145 0.0 0.9 0.02 0.07 0.02 84 1006.3
20260507074144 53 256 0.0 0.9 0.01 0.06 0.01 84 1006.4
20260507073641 53 255 0.0 0.9 0.00 0.05 0.00 83 1006.5
20260507073139 53 250 0.0 0.9 0.00 0.05 0.00 83 1006.6
20260507072908 53 250 0.0 0.9 0.00 0.05 0.00 83 1006.0
20260507072409 53 27 0.0 0.9 0.00 0.05 0.00 82 1005.8
20260507072245 53 38 0.0 0.9 0.00 0.05 0.00 82 1005.7
20260507071135 53 37 0.0 0.9 0.00 0.05 0.00 82 1005.8
20260507070634 53 13 0.0 0.0 0.00 0.05 0.00 82 1006.0
20260507070124 53 13 0.0 2.6 0.00 0.05 0.00 82 1005.9
20260507065621 54 13 0.0 2.6 0.00 0.05 0.00 81 1005.8
20260507065353 54 345 0.0 2.6 0.00 0.05 0.00 81 1005.8
20260507064855 54 158 0.0 1.7 0.00 0.05 0.00 82 1005.9
20260507064122 54 108 0.0 0.9 0.00 0.05 0.00 84 1005.9
20260507063624 55 12 0.0 6.1 0.00 0.05 0.00 84 1006.0
20260507063619 55 12 0.0 0.9 0.00 0.05 0.00 84 1005.9
20260507062848 55 12 0.0 6.1 0.00 0.05 0.00 85 1005.9
20260507062118 55 39 0.0 0.9 0.00 0.05 0.00 84 1005.8
20260507061618 56 76 0.0 1.7 0.00 0.05 0.00 85 1005.7
20260507061117 56 137 0.0 1.7 0.00 0.05 0.00 85 1005.6
20260507060616 56 22 0.0 1.7 0.00 0.05 0.00 85 1005.9
20260507060104 56 22 0.0 1.7 0.00 0.05 0.00 85 1005.9
20260507055604 56 140 0.0 0.9 0.00 0.05 0.00 85 1005.9
20260507055101 56 133 0.0 0.9 0.00 0.05 0.00 85 1005.8
20260507054602 56 133 0.0 0.9 0.00 0.05 0.00 85 1006.0
20260507054059 56 203 0.0 0.9 0.00 0.05 0.00 85 1006.2
20260507053832 56 209 0.0 0.0 0.00 0.05 0.00 85 1006.4
20260507053059 56 209 0.0 3.5 0.00 0.05 0.00 85 1006.2
20260507052559 57 209 0.0 3.5 0.00 0.05 0.00 84 1006.1
20260507052100 57 332 0.0 4.3 0.00 0.05 0.00 84 1006.0
20260507051556 57 332 0.0 4.3 0.00 0.05 0.00 85 1005.8
20260507051057 57 123 0.0 2.6 0.00 0.05 0.00 85 1005.7
20260507050556 58 262 0.0 2.6 0.00 0.05 0.00 85 1005.8
20260507050053 58 341 0.0 2.6 0.00 0.05 0.00 85 1005.8
20260507045552 58 7 0.0 3.5 0.00 0.05 0.00 85 1005.9
20260507045049 58 284 0.0 3.5 0.00 0.05 0.00 85 1006.0
20260507044549 58 270 0.0 1.7 0.00 0.05 0.00 85 1006.0
20260507044050 58 162 0.0 1.7 0.00 0.05 0.00 85 1005.8
20260507043550 58 143 0.0 1.7 0.00 0.05 0.00 85 1005.8
20260507043050 58 245 0.0 2.6 0.00 0.05 0.00 85 1005.8
20260507042549 58 302 0.0 2.6 0.00 0.05 0.00 86 1005.9
20260507042049 59 227 0.0 2.6 0.00 0.05 0.00 86 1005.9
20260507041550 59 268 0.0 1.7 0.00 0.05 0.00 86 1005.8
20260507041051 59 259 0.0 1.7 0.00 0.05 0.00 86 1005.8
20260507040549 59 237 0.0 1.7 0.00 0.05 0.00 86 1006.0
20260507040049 59 218 0.0 1.7 0.00 0.05 0.00 86 1006.3
20260507035550 59 218 0.0 2.6 0.00 0.05 0.05 86 1006.2
20260507035050 59 218 0.9 2.6 0.00 0.05 0.05 86 1006.0
20260507034549 59 218 0.9 4.3 0.00 0.05 0.05 86 1005.9
20260507034047 59 209 0.9 4.3 0.00 0.05 0.05 86 1005.9
20260507033546 59 204 0.9 3.5 0.00 0.05 0.05 86 1005.7
20260507033045 59 205 0.0 2.6 0.00 0.05 0.05 86 1005.8
20260507032545 59 205 0.9 2.6 0.00 0.05 0.05 86 1005.8
20260507032048 59 203 0.9 4.3 0.00 0.05 0.05 86 1005.6
20260507031818 59 203 1.7 5.2 0.00 0.05 0.05 86 1005.4
20260507031048 59 208 1.7 5.2 0.00 0.05 0.05 86 1005.4
20260507030547 59 208 0.9 4.3 0.00 0.05 0.05 86 1005.4
20260507030047 59 210 1.7 3.5 0.00 0.05 0.05 86 1005.3
20260507025545 59 210 1.7 3.5 0.00 0.05 0.05 86 1005.1
20260507025046 59 198 1.7 5.2 0.00 0.05 0.05 86 1005.2
20260507024545 59 300 1.7 5.2 0.00 0.05 0.05 86 1005.3
20260507024045 59 194 1.7 5.2 0.00 0.05 0.05 86 1005.5
20260507023815 58 202 1.7 4.3 0.00 0.05 0.05 86 1005.5
20260507023316 58 205 0.9 4.3 0.00 0.05 0.05 86 1005.5
20260507022544 58 205 0.9 4.3 0.00 0.05 0.05 86 1005.5
20260507022041 58 226 1.7 4.3 0.00 0.05 0.05 86 1005.4
20260507021542 58 192 0.9 4.3 0.00 0.05 0.05 86 1005.5
20260507021314 58 189 0.9 4.3 0.00 0.05 0.05 86 1005.4
20260507020539 58 185 0.9 4.3 0.00 0.05 0.05 86 1005.4
20260507020038 58 208 0.9 4.3 0.00 0.05 0.05 86 1005.4
20260507015535 58 206 1.7 4.3 0.00 0.05 0.05 86 1005.4
20260507015032 58 190 1.7 4.3 0.00 0.05 0.05 86 1005.4
20260507014532 58 220 1.7 4.3 0.00 0.05 0.05 86 1005.5
20260507014017 58 214 1.7 4.3 0.00 0.05 0.05 86 1005.5
20260507013517 58 217 1.7 4.3 0.00 0.05 0.05 86 1005.5
20260507013018 58 210 1.7 6.1 0.00 0.05 0.05 86 1005.5
20260507012517 58 212 1.7 6.1 0.00 0.05 0.05 86 1005.6
20260507012017 58 206 2.6 5.2 0.00 0.05 0.05 86 1005.7
20260507011515 58 211 1.7 4.3 0.00 0.05 0.05 86 1005.7
20260507011015 58 189 1.7 7.0 0.00 0.05 0.05 86 1005.7
20260507010516 58 214 1.7 7.0 0.00 0.05 0.05 86 1005.7
20260507010246 58 207 2.6 5.2 0.00 0.05 0.05 86 1005.8
20260507005517 58 182 1.7 5.2 0.00 0.05 0.05 86 1005.8
20260507005016 57 202 1.7 3.5 0.00 0.05 0.05 86 1005.8
20260507004515 57 200 1.7 5.2 0.00 0.05 0.05 86 1005.8
20260507004015 58 234 1.7 5.2 0.00 0.05 0.05 86 1005.7
20260507003513 58 198 1.7 7.0 0.00 0.05 0.05 86 1005.7
20260507003014 58 208 1.7 7.0 0.01 0.05 0.05 86 1005.7
20260507002513 58 197 1.7 7.8 0.01 0.05 0.05 86 1005.8
20260507002011 58 218 1.7 7.8 0.01 0.05 0.05 86 1005.7
20260507001509 58 147 1.7 5.2 0.02 0.05 0.05 86 1005.7
20260507001007 58 205 2.6 5.2 0.02 0.05 0.05 86 1005.6
20260507000507 58 197 2.6 6.1 0.02 0.05 0.05 86 1005.5
20260507000007 58 205 2.6 6.1 0.02 0.05 0.05 86 1005.4
20260506235500 58 199 2.6 5.2 0.02 0.05 0.05 86 1005.4
20260506234954 58 204 1.7 5.2 0.02 0.05 0.05 86 1005.5
20260506234447 58 207 1.7 6.1 0.02 0.05 0.05 86 1005.6
20260506233947 58 196 2.6 6.1 0.02 0.05 0.05 85 1005.6
20260506233447 58 205 1.7 6.1 0.02 0.05 0.05 85 1005.5
20260506232945 59 200 2.6 7.0 0.01 0.04 0.04 85 1005.4
20260506232445 59 212 2.6 7.0 0.01 0.04 0.04 85 1005.4
20260506231943 59 308 1.7 5.2 0.01 0.04 0.04 85 1005.4
20260506231712 59 201 1.7 5.2 0.00 0.03 0.03 85 1005.4
20260506230941 59 209 1.7 4.3 0.00 0.03 0.03 85 1005.4
20260506230441 59 192 1.7 5.2 0.00 0.03 0.03 85 1005.4
20260506225939 59 198 1.7 5.2 0.00 0.03 0.03 85 1005.4
20260506225708 60 214 1.7 4.3 0.00 0.03 0.03 85 1005.4
20260506224931 60 205 2.6 6.1 0.01 0.03 0.03 85 1005.5
20260506224421 60 216 2.6 7.0 0.01 0.03 0.03 85 1005.5
20260506223913 60 216 2.6 7.0 0.01 0.03 0.03 85 1005.6
20260506223413 60 206 2.6 7.0 0.01 0.03 0.03 85 1005.6
20260506222913 60 220 2.6 7.0 0.01 0.03 0.03 85 1005.7
20260506222413 60 206 2.6 6.1 0.01 0.03 0.03 85 1005.7
20260506221913 60 210 3.5 6.1 0.01 0.03 0.03 85 1005.8
20260506221413 60 207 2.6 6.1 0.01 0.03 0.03 85 1005.8
20260506220913 60 208 2.6 6.1 0.01 0.03 0.03 85 1005.8
20260506220413 60 208 1.7 5.2 0.01 0.03 0.03 85 1005.8
20260506220144 60 207 2.6 5.2 0.01 0.03 0.03 84 1005.9
20260506215413 60 214 3.5 8.7 0.01 0.03 0.03 84 1006.1
20260506214915 61 195 2.6 8.7 0.00 0.02 0.02 84 1006.1
20260506214410 61 237 2.6 7.0 0.00 0.02 0.02 83 1006.2
20260506213853 61 201 2.6 7.8 0.00 0.02 0.02 83 1006.2
20260506213339 61 204 2.6 8.7 0.00 0.02 0.02 83 1006.4
20260506212833 61 208 2.6 8.7 0.00 0.02 0.02 83 1006.3